Bodensee (Kressbronn): 10,0°C  -  Teich der Wetterzentrale Bad Schussenried: 5,6°C |  Schneehöhe Kreuzthal-Steinberg (930 m ü. NN): 2 cm   
14.11.2019Höhe
ü. NN
ZeitTemperatur (°C)Nieder-
schlag
Luft-
feuchte
Luft-
druck
Wind
StationaktuellMinimumMaximumaktuellMaximum
Aldingen654 m00:010,10,1 (02:23)0,1 (13:03)0,0 l/m²91%1006,80,0 km/h (0 Bft) S-SO22,2 km/h (4 Bft) S-SO (13:14)
Allmannsweiler625 m00:000,20,2 (00:00)0,2 (00:00)0,0 l/m²91%1005,70,0 km/h (0 Bft) SW0,0 km/h (0 Bft) SW (00:00)
Allmendingen541 m00:00-1,0-1,0 (00:00)-1,0 (14:30)0,0 l/m²90%1006,11,6 km/h (1 Bft) O27,4 km/h (4 Bft) SW (15:30)
Amstetten-Reutti663 m00:00-0,8-0,8 (00:00)-0,8 (14:25)0,0 l/m²91%1005,86,4 km/h (2 Bft) O22,5 km/h (4 Bft) W-SW (13:55)
Amtzell-Grenis677 m00:00-0,1-0,1 (00:00)-0,1 (00:00)0,0 l/m²76%1007,64,8 km/h (1 Bft) SW4,8 km/h (1 Bft) SW (00:00)
Bad Krozingen233 m00:004,64,6 (07:25)4,6 (14:35)0,0 l/m²81%1006,23,3 km/h (1 Bft) SO29,7 km/h (5 Bft) SW (12:35)
Bad Saulgau595 m00:000,50,5 (07:15)0,5 (11:35)0,0 l/m²88%1005,06,4 km/h (2 Bft) NW22,5 km/h (4 Bft) NO (12:20)
Bad Saulgau-Lampertsweiler627 m00:000,40,4 (00:00)0,4 (00:00)0,0 l/m²84%1008,60,0 km/h (0 Bft) SO0,0 km/h (0 Bft) SO (00:00)
Bad Schussenried572 m00:000,81,0 (00:00)1,0 (00:00)0,0 l/m²85%1004,60,0 km/h (0 Bft) W-SW0,0 km/h (0 Bft) W-SW (00:00)
Bergatreute615 m00:001,61,6 (00:00)1,6 (00:00)0,0 l/m²91%1006,00,0 km/h (0 Bft) SO0,0 km/h (0 Bft) SO (00:00)
Biberach (Riss), Boehringer533 m00:000,60,6 (00:00)0,7 (00:00)0,0 l/m²92%1006,82,9 km/h (1 Bft) SW8,3 km/h (2 Bft) W-SW (00:00)
Biberach (Riss), Realschule553 m00:000,80,9 (00:00)0,9 (00:00)0,0 l/m²88%1007,13,2 km/h (1 Bft) S-SO3,2 km/h (1 Bft) S-SO (00:00)
Burgrieden523 m00:000,10,1 (00:00)0,1 (00:00)0,0 l/m²85%1006,10,0 km/h (0 Bft) S0,0 km/h (0 Bft) S (00:00)
Ebersbach579 m00:000,70,7 (00:00)0,7 (00:00)0,0 l/m²89%1007,00,0 km/h (0 Bft) SO0,0 km/h (0 Bft) SO (00:00)
Ebersbach-Boos605 m00:000,80,9 (00:00)0,9 (00:00)0,0 l/m²88%1006,70,0 km/h (0 Bft) SO0,0 km/h (0 Bft) SW (00:00)
Ebersbach-Menzenweiler661 m00:002,02,0 (00:00)2,0 (00:00)0,0 l/m²84%1006,711,3 km/h (2 Bft) O-SO11,3 km/h (2 Bft) O-SO (00:00)
Erlenmoos645 m00:001,41,6 (00:00)1,6 (00:00)0,0 l/m²89%1006,49,7 km/h (2 Bft) S-SO9,7 km/h (2 Bft) S-SO (00:00)
Ertingen569 m00:000,40,4 (00:00)0,4 (00:00)0,0 l/m²89%1006,10,0 km/h (0 Bft) S-SO0,0 km/h (0 Bft) S-SO (00:00)
Günzburg443 m00:000,80,8 (00:00)0,8 (00:00)0,0 l/m²88%1003,90,0 km/h (0 Bft) SW0,0 km/h (0 Bft) SW (00:00)
Hochdorf-Appendorf537 m00:00-1,9-1,8 (00:00)-1,8 (00:00)0,0 l/m²78%1014,23,2 km/h (1 Bft) W3,2 km/h (1 Bft) W (00:00)
Höchsten802 m00:000,80,8 (00:00)0,8 (00:00)0,0 l/m²88%1004,26,4 km/h (2 Bft) S-SW6,4 km/h (2 Bft) S-SW (00:00)
Horgenzell618 m00:001,21,3 (00:00)1,3 (00:00)0,0 l/m²87%1004,86,4 km/h (2 Bft) O6,4 km/h (2 Bft) SO (00:00)
Hoßkirch632 m00:00-0,20,1 (00:00)0,1 (00:00)0,0 l/m²88%1005,29,7 km/h (2 Bft) O9,7 km/h (2 Bft) O-SO (00:00)
Isny, Am Dreifingerbach695 m00:00-1,1-1,0 (00:00)-1,0 (00:00)0,0 l/m²93%1005,94,8 km/h (1 Bft) O-SO4,8 km/h (1 Bft) O-SO (00:00)
Isny, Weidachweg706 m00:00-0,7-0,6 (00:00)-0,6 (00:00)0,0 l/m²88%1007,98,0 km/h (2 Bft) O-SO8,0 km/h (2 Bft) SO (00:00)
Kirchberg an der Iller584 m00:00-0,1-0,1 (23:45)-0,1 (13:45)0,0 l/m²87%997,80,0 km/h (0 Bft) O-NO17,9 km/h (3 Bft) O-SO (13:30)
Kißlegg-Staibshof709 m00:000,30,3 (00:00)0,3 (00:00)0,0 l/m²93%1006,50,0 km/h (0 Bft) S-SW0,0 km/h (0 Bft) SW (00:00)
Kristberg im Montafon (AT)1425 m00:00-3,7-3,7 (00:00)-3,7 (00:00)0,0 l/m²77%1007,61,6 km/h (1 Bft) NO1,6 km/h (1 Bft) NO (00:00)
Laupheim500 m00:00-0,4-0,3 (00:00)-0,3 (00:00)0,0 l/m²90%1005,61,6 km/h (1 Bft) S-SW1,6 km/h (1 Bft) S-SW (00:00)
Leutkirch-Heggelbach670 m00:00-1,2-1,2 (00:00)-1,2 (00:00)0,0 l/m²90%1005,60,0 km/h (0 Bft) SW0,0 km/h (0 Bft) S-SW (00:00)
Lindau-Insel420 m00:004,84,8 (06:30)4,8 (15:15)0,0 l/m²77%1005,40,0 km/h (0 Bft) S-SO19,3 km/h (3 Bft) S (22:25)
Lindau-Stadt412 m00:003,43,4 (07:35)3,4 (12:10)0,0 l/m²82%1005,73,2 km/h (1 Bft) SO16,1 km/h (3 Bft) W (10:10)
Maselheim543 m00:000,00,0 (07:25)0,0 (13:45)0,0 l/m²89%1006,43,2 km/h (1 Bft) S-SO27,4 km/h (4 Bft) W-SW (13:35)
Maselheim-Sulmingen548 m00:000,20,2 (07:35)0,2 (14:10)0,0 l/m²89%1007,64,8 km/h (1 Bft) SW30,6 km/h (5 Bft) SW (13:15)
Mietingen-Baltringen528 m00:000,60,8 (00:00)0,8 (00:00)0,0 l/m²85%1007,90,0 km/h (0 Bft) S-SW0,0 km/h (0 Bft) S-SW (00:00)
Mindelheim-Apfeltrach620 m00:01-1,2-1,2 (00:01)-1,1 (00:00)0,0 l/m²90%1008,06,4 km/h (2 Bft) S-SO6,4 km/h (2 Bft) S-SO (00:00)
Mittelbiberach577 m00:001,31,3 (06:55)1,3 (13:35)0,0 l/m²85%1007,84,8 km/h (1 Bft) S24,1 km/h (4 Bft) SW (13:15)
Neukirch570 m00:000,70,7 (06:50)0,7 (14:30)0,0 l/m²88%1006,24,8 km/h (1 Bft) N-NO29,0 km/h (5 Bft) SW (13:50)
Ochsenhausen, Unt. Wiesen575 m00:000,60,7 (00:00)0,7 (00:00)0,0 l/m²87%1007,96,4 km/h (2 Bft) S6,4 km/h (2 Bft) S-SO (00:00)
Ostrach619 m00:000,50,6 (00:00)0,6 (00:00)0,0 l/m²90%1004,73,2 km/h (1 Bft) S3,2 km/h (1 Bft) S (00:00)
Ravensburg, Goethestraße428 m00:051,11,0 (00:00)1,1 (00:05)0,0 l/m²91%1005,76,4 km/h (2 Bft) N-NW6,4 km/h (2 Bft) N-NW (00:05)
Ravensburg, Springerstraße441 m00:002,12,1 (00:00)2,1 (00:00)0,0 l/m²80%1006,00,0 km/h (0 Bft) O-NO0,0 km/h (0 Bft) O-NO (00:00)
Ravensburg-Wernsreute511 m00:00-0,8-0,8 (23:20)-0,8 (13:10)0,0 l/m²92%1008,74,8 km/h (1 Bft) N25,7 km/h (4 Bft) SW (12:45)
Reichenbach an der Fils343 m00:002,72,8 (00:00)2,8 (00:00)0,0 l/m²83%1007,30,0 km/h (0 Bft) O0,0 km/h (0 Bft) O (00:00)
Reinstetten559 m00:000,50,7 (00:00)0,7 (00:00)0,0 l/m²87%1006,84,8 km/h (1 Bft) S-SW4,8 km/h (1 Bft) S-SW (00:00)
Riedlingen530 m00:00-0,10,0 (00:00)0,0 (00:00)0,0 l/m²91%1006,31,6 km/h (1 Bft) S-SW1,6 km/h (1 Bft) S-SW (00:00)
Schemmerhofen520 m00:000,60,6 (00:00)0,6 (00:00)0,0 l/m²91%1006,03,2 km/h (1 Bft) SW3,2 km/h (1 Bft) SW (00:00)
Silbertal im Montafon (AT)884 m00:00-2,3-2,3 (00:00)-2,3 (00:00)0,0 l/m²93%1007,90,0 km/h (0 Bft) O0,0 km/h (0 Bft) O (00:00)
Tuttlingen, Möhringer-Vorstadt711 m00:00-1,8-1,8 (06:30)-1,8 (12:55)0,0 l/m²95%1006,30,0 km/h (0 Bft) S-SO17,7 km/h (3 Bft) W-SW (12:15)
Ummendorf547 m00:000,00,0 (00:00)0,0 (00:00)0,0 l/m²84%1007,46,4 km/h (2 Bft) O-SO6,4 km/h (2 Bft) O-SO (00:00)
Ummendorf-Fischbach558 m00:00-0,2-0,2 (00:00)-0,2 (00:00)0,0 l/m²84%1007,40,0 km/h (0 Bft) SO0,0 km/h (0 Bft) SO (00:00)
Waldburg707 m00:000,50,5 (00:00)0,5 (00:00)0,0 l/m²90%1005,80,0 km/h (0 Bft) N0,0 km/h (0 Bft) N (00:00)
Wangen, Hans-Schnitzer-Weg569 m00:000,70,7 (00:00)0,7 (00:00)0,0 l/m²72%1005,10,0 km/h (0 Bft) S0,0 km/h (0 Bft) S (00:00)
Weingarten500 m00:001,91,9 (00:00)1,9 (00:00)0,0 l/m²88%1005,93,2 km/h (1 Bft) SO3,2 km/h (1 Bft) SO (00:00)

niederschlagsdatenbank | info | login - erfassung

Sollten Sie Interesse haben, an der Niederschlagsdatenbank teilzunehmen, finden Sie > hier < weitere Informationen.
< 2018

Niederschlagswerte 2019    -    derzeit 111 Stationen

Die Niederschlagswerte lassen sich durch Klicken auf den entsprechenden Monatsnamen sortieren.
Die Angaben sind in l/m².

StationJanFebMärAprMaiJunJulAugSepOktNovGesamt
Aichstetten Ulmenstraße 7-------68,9108,094,013,0283,9
Aichstetten-Nestbaum Nestbaum---37,0179,077,0159,0104,580,586,028,0751,0
Albbruck Furmisstr. 18129,339,1126,964,4160,185,549,794,658,2157,763,81029,3
Allmendingen Querqueviller Ring 694,316,557,844,995,963,6109,681,851,160,519,5695,5
Amstetten-Reutti Gassenäcker 13121,825,679,437,0120,873,4121,873,530,672,020,8776,7
Aulendorf Steinenbacher Weg 3389,721,345,664,2116,963,4131,6140,692,795,032,5893,5
Aulendorf-Blönried Heuweg 3274,922,444,652,4112,469,8145,9124,184,192,328,8851,7
Bad Bellingen Rheinstraße 76    neu  ----------0,00,0
Bad Buchau Hanfweiher 182,530,055,059,0115,2119,5130,5111,577,068,031,0879,2
Bad Saulgau Walserweg62,036,546,045,592,582,0134,0116,066,085,026,0791,5
Bad Saulgau-Hochberg Lampertsweiler Straße 1261,526,544,553,3108,875,0156,5114,474,2104,7-819,4
Bad Schussenried Konradstraße74,430,558,160,5150,465,3169,1109,464,477,228,0887,3
Bad Schussenried Lortzingstrasse78,725,561,556,5163,667,2172,7115,071,385,734,0931,7
Bad Schussenried Klosterstraße83,528,862,960,7143,378,7188,5113,567,584,031,7943,1
Bad Schussenried Theodor-Storm-Strasse86,126,963,559,5150,078,6185,5114,069,783,820,1937,7
Bad Schussenried-Hopferbach Unterer Öschweg 16/184,826,358,968,4141,577,1173,7114,777,386,433,8942,9
Bad Schussenried-Lufthütte Hauptgasse 17--58,063,5119,564,5156,0112,571,581,532,0759,0
Bad Schussenried-Sattenbeuren Ortsstraße 7--------57,576,925,9160,3
Bad Schussenried-Schwaigfurt Schwaigfurt 291,825,961,955,3109,562,5164,3107,477,382,826,8865,5
Bad Waldsee-Haisterkirch Zur Spitzenkapelle 1112,728,065,056,2163,256,6159,4130,2101,693,031,6997,5
Bad Wurzach-Seibranz Kimpflerhof 2 100,535,189,957,2189,871,0171,3133,694,0125,934,01102,3
Baienfurt Untere Bergstrasse 7131,527,069,066,0161,062,0144,0106,0114,0100,034,01014,5
Balzheim Hinterm Liess 1974,320,349,258,0137,553,4113,3122,147,559,525,5760,6
Berg-Kleintobel Kleintobel104,324,687,957,8165,676,1153,991,5110,289,529,3990,7
Biberach Amriswilstrasse79,525,253,653,0133,484,7138,3118,376,971,525,9860,3
Biberach Strölinweg75,525,053,560,5126,530,0146,0120,081,567,534,0820,0
Biberach Erlenweg0,0-47,555,0126,366,0148,553,577,566,833,2674,3
Biberach Neue Heimat 52,2-52,3-84,878,554,038,090,047,028,5475,3
Biberach Mittelbergstraße 978,525,049,547,5107,062,561,0198,584,075,026,8815,3
Biberach-Bergerhausen Löcherstr.174,220,953,350,9115,873,5151,4120,891,273,827,9853,7
Bierstetten Schloßbühl 678,828,639,260,9110,087,5144,0107,376,480,525,2838,4
Blaubeuren-Pappelau Sotzenhauserstr.7114,017,061,047,097,541,0134,578,546,070,528,5735,5
Bühlertal Wolfinstraße 16126,033,0147,581,5231,084,565,069,089,0132,052,01110,5
Dettingen a. d. Iller Schleifweg 4---57,093,0------150,0
Dornstadt-Tomerdingen Maienweg 998,219,968,233,5110,483,8128,085,437,080,232,6777,2
Dürnau Dorfäckerweg 564,824,642,056,0108,295,5136,8127,537,578,532,0803,4
Eberhardzell Lilienweg101,022,948,352,0171,973,3155,0139,576,580,732,0953,1
Ebersbach-Roßwälden Appenwiesen99,57,632,337,0134,182,2105,587,354,381,633,9755,3
Ehingen Rosenstraße81,812,551,736,785,156,699,880,547,367,927,7647,6
Ehingen Zanderstraße30,7-22,936,981,662,756,4--45,1-336,3
Ehingen Schlaufenbühl95,718,955,744,599,561,8138,289,758,669,530,4762,5
Ehingen Schillerstraße79,011,648,239,782,764,4100,084,457,961,231,4660,5
Ehingen-Herbertshofen Tobelweg 9-----------0,0
Eislingen Albstraße 125141,618,384,541,3114,7127,093,698,851,090,032,0892,8
Erbach-Bach Hauptstraße 2467,715,543,229,082,450,8107,7105,544,061,328,2635,3
Erlenmoos Haldenweg 15101,829,870,373,4166,965,9124,9142,889,695,529,0989,9
Füramoos Hungersberg 130,122,055,046,0152,463,9141,5147,495,468,612,3834,6
Gutenzell Kleinser Berg 170,024,053,562,0164,558,6115,0122,570,072,525,5838,1
Gutenzell-Hürbel Bei der Sägmühle 179,523,556,563,0137,063,4114,8127,467,581,529,5843,6
Herbertingen Drosselweg65,323,347,157,5113,4105,3123,5124,052,282,932,1826,6
Herbertingen Hirschstrasse53,520,042,054,595,093,559,0126,552,079,532,0707,5
Hochdorf-Schweinhausen Lindenweg 2106,925,055,566,3153,290,8118,2127,483,579,527,5933,8
Hohentengen-Bremen Bremer Halde 460,222,053,742,0126,580,5130,795,061,185,533,4790,6
Horgenzell-Ringgenweiler Ringgenweiler 62092,526,255,458,4150,663,2128,7121,597,8113,842,5950,6
Hüttisheim Ulmer Weg 273,517,549,537,5104,048,5115,5135,030,584,031,5727,0
Illerkirchberg Mahdauweg 2080,619,156,138,491,350,0109,997,230,354,527,9655,3
Illerrieden-Wangen Am Muckenberg 12-0,049,015,5116,546,584,0117,038,755,033,0555,2
Immenstaad Stockwiesen 10-----------0,0
Inzigkofen Butzenweg 154,123,557,842,798,770,989,774,649,090,639,5691,1
Isny Am Dreifingerbach 39140,642,8121,449,8247,864,4188,4204,2124,0164,229,61377,2
Kirchberg Rosenstr. 782,324,257,563,7158,774,8105,1139,763,974,026,3870,2
Kreuzthal-Steinberg-Alpe Im Kreuzbachthal 85238,665,2156,176,4342,464,9205,3211,0162,8203,742,41768,8
Langenau Wasserstr. 54-187,521,583,529,066,558,088,085,536,070,028,5654,0
Langenenslingen Schattenweiler Str. 1856,018,052,540,485,871,898,080,462,980,737,5684,0
Leutkirch Unterer Auenweg 25146,836,4109,254,4166,847,7175,6142,584,6108,324,91097,2
Leutkirch Nachtigallenweg 28146,043,2100,074,5211,059,4196,2186,7120,7145,744,71328,1
Leutkirch-Adrazhofen Bergstraße 20176,040,297,562,5160,073,0167,5163,060,0207,040,01246,7
Merklingen Millergasse 9-----------0,0
Mietingen Seerosenweg 100,00,0--95,057,0143,5133,554,164,427,5575,0
Mietingen-Walpertshofen Bussenweg 31--25,060,0148,044,0149,0143,052,065,031,0717,0
Mittelbiberach-Reute Rindenmooser Straße 285,728,841,863,1140,085,2128,2114,184,985,034,9891,7
Moosburg Käserweg 570,827,149,263,3124,4100,3112,0121,176,585,626,4856,7
Münsingen-Rietheim In der Lise 20150,025,869,647,2169,099,4147,0105,252,2102,831,4999,6
Neresheim Alfred-Delp-Straße 885,525,771,614,863,781,064,898,121,456,324,2607,1
Oberdischingen Normannenstraße 720,810,241,841,888,749,9115,1102,343,361,031,4606,3
Ochsenhausen Ehrensberger Weg 554,321,254,561,5144,073,5115,0124,3109,679,124,0861,0
Öpfingen Hauptstraße 9972,114,950,540,687,657,1111,7105,042,663,834,1680,0
Ostrach Uhlandweg55,525,556,043,5113,099,0105,2141,587,084,736,5847,4
Pfaffenhofen-Kadeltshofen Mühlbachstraße 465,021,047,023,090,0103,094,0111,040,052,025,0671,0
Pfullendorf Am Schweizersbild 2,83,126,941,8128,885,682,354,078,2103,829,0636,3
Rangendingen Donaustraße 1943,022,070,553,596,0100,5111,0112,039,582,033,0763,0
Ravensburg Bleicherstraße115,332,560,757,2185,090,0164,5132,4122,6109,339,71109,2
Ravensburg-Schmalegg St.-Magdalena-Ring 4294,630,084,448,3161,146,1155,4106,0113,4100,629,2969,1
Ravensburg-Wernsreute Wernsreute 2576,226,670,262,1176,257,4143,8138,6125,2119,638,41034,3
Ravensburg-Weststadt Karl-Erb-Ring 142118,635,076,952,3193,972,5168,5126,4115,5115,639,71114,9
Regensburg Orleansstraße 3--------45,844,226,8116,8
Riedhausen Blütenweg 1352,020,862,050,6144,0119,4162,0155,678,2106,245,8996,6
Riedlingen Berliner Str. 41-1,553,941,595,564,368,0111,055,074,933,3598,9
Riedlingen-Neufra Panoramaweg---8,566,437,065,026,558,061,035,0357,4
Riedlingen-Neufra Riedlinger Strasse-7,045,346,270,167,593,599,260,268,837,5595,3
Schelklingen-Gundershofen Schwarzer-Straße 14152,523,572,553,0125,072,5114,088,052,097,029,5879,5
Schemmerberg Drosselweg 987,423,760,751,9151,552,3126,1124,166,468,830,1843,0
Schwörstadt Schulstrasse 1983,425,079,888,888,476,468,2141,256,2139,049,0895,4
Seekirch Haldenberg 7--0,054,797,583,5103,0138,050,588,516,5632,2
Sigmaringendorf Weingartenstraße 748,919,253,939,197,472,7110,662,437,263,731,7636,8
Tuttlingen-Möhringen Eßlinger Straße47,626,072,366,2116,781,4113,177,746,191,546,6785,2
Ulm Eberhardtstraße 7538,413,542,025,871,867,3121,1105,533,456,726,7602,2
Ummendorf Tulpenweg122,524,060,757,7130,779,3159,9127,197,577,834,2971,4
Ummendorf Friedrich-Schiller-Str.---57,697,658,8122,0101,376,255,2-568,7
Uttenweiler-Ahlen Seekircher Straße 864,623,335,147,9107,569,5128,6123,782,674,228,7785,7
Vöhringen (Schwarzwald) Drosselweg 371,027,0144,070,0128,0107,050,067,042,099,043,0848,0
Waldburg Kastanienweg11152,542,583,046,8249,962,0142,390,1163,0114,247,51193,8
Wangen-Bergerhöhe Berg 2184,642,193,057,6248,456,8171,5188,0124,6162,743,51372,8
Warthausen An der Schloßhalde --40,735,8100,855,0104,4113,380,838,55,3574,6
Warthausen Schwabenwiesen 32,420,451,348,3113,459,7143,3100,484,269,327,9750,6
Warthausen-Barabein Barabein 2051,123,050,853,6122,067,5171,2133,681,078,133,3865,2
Weingarten Laurastraße108,826,667,554,2169,674,7175,2115,0111,091,838,71033,1
Weingarten Hoyerstraße-----------0,0
Weingarten Marienstraße105,626,773,552,6169,079,6172,6124,5106,695,137,51043,3
Wolfegg-Veesers Veesers 1--135,047,6209,954,3210,7134,984,0109,067,51052,9
Wolpertswende Aulendorfer Str. 1721,70,944,136,3109,561,222,8258,974,978,925,0734,2

Stillgelegte Niederschlagsstationen    -    derzeit 49 Stationen

StationLetzte MeldungJanFebMärAprMaiJunJulAugSepOktNovGesamt
Allmannsweiler Eggatsweilerstr.2809.2014-----------0,0
Aulendorf-Rugetsweiler Erikaweg 307.2013-----------0,0
Aulendorf-Zollenreute Imterstraße 1202.201956,66,0---------62,6
Bad Saulgau Eichendorffweg03.2013-----------0,0
Bad Saulgau Seewattenstraße 12801.2014-----------0,0
Bad Saulgau-Lampertsweiler Valentinstr. 2602.2015-----------0,0
Bad Schussenried-Steinhausen Drosselgasse 4/109.2012-----------0,0
Bad Waldsee-Michelwinnanden Michelberg 512.2014-----------0,0
Bad Waldsee-Osterhofen Hochwaldgasse 403.2015-----------0,0
Bad Waldsee-Steinach Hofraingasse 1511.2013-----------0,0
Bad Wurzach-Dietmanns Postweg 501.20190,0----------0,0
Bad Wurzach-Ziegelbach Ziegelbach-Greut 511.2014-----------0,0
Bergatreute Bolanden 102.2012-----------0,0
Betzenweiler Offinger Straße 501.2017-----------0,0
Burgrieden Am Nonnenberg 310.2013-----------0,0
Burgrieden-Rot Schmiedgasse 509.2013-----------0,0
Eberhardzell Schillerstraße07.2010-----------0,0
Ehingen Am Elzengraben06.2016-----------0,0
Gammertingen Schillerstraße 2201.2016-----------0,0
Griesingen Blumenstraße 910.2015-----------0,0
Günzburg Erlenbadweg 34 1/212.2010-----------0,0
Hoßkirch Kirchstraße 801.2018-----------0,0
Ingoldingen-Grodt Ingoldinger Weg 1911.2016-----------0,0
Kisslegg Kirchmoosstraße05.2011-----------0,0
Krauchenwies-Hausen Rosenrain 111.2013-----------0,0
Kressbronn Irisstraße 403.2010-----------0,0
Leutkirch-Ottmannshofen Spitalriedstraße 507.2012-----------0,0
Leutkirch-Rotis Rotis 5/205.2016-----------0,0
Leutkirch-Wuchzenhofen Untere Kirchstraße 18/109.2016-----------0,0
Mietingen Hangweg 1512.2017-----------0,0
Mössingen-Bästenhardt Weissdornweg 707.2014-----------0,0
Ostrach Heiligenberger Straße08.2013-----------0,0
Pfullendorf Ringstraße 03.2012-----------0,0
Ravensburg Olgastraße10.2016-----------0,0
Seltmans Amselweg 2204.2013-----------0,0
Stuttgart-Bad Cannstatt Beuthener Str. 6702.2013-----------0,0
Stuttgart-Möhringen Glashütter Weg 1004.2017-----------0,0
Stuttgart-Rohr Hirschsprung 311.2012-----------0,0
Talheim Im Schecken 2108.2016-----------0,0
Tannheim Eggmannstr. 42 10.2017-----------0,0
Tettnang-Ramsbach Jahnstr. 24/103.2011-----------0,0
Tuttlingen-Möhringen Belchenstraße01.2015-----------0,0
Ummendorf Bergstraße10.2017-----------0,0
Vogt Mühlwies 1805.2015-----------0,0
Wangen-Atzenberg Keplerweg 302.20190,00,0---------0,0
Weingarten Bischof-Sproll-Straße06.2011-----------0,0
Wilhelmsdorf Riedhauser Straße 10.2012-----------0,0
Wilhelmsdorf Seefeld08.2013-----------0,0
Wurmlingen An der Steig 3010.2016-----------0,0
Die Niederschlagswerte lassen sich durch Klicken auf den entsprechenden Monatsnamen sortieren.
Die Angaben sind in l/m².

< 2018
 
wetterstationen
wetterstationen
- derzeit 78 Stationen
niederschlagsdatenbank
wetterstationen
- kartographische Darstellung
niederschlagsdatenbank
niederschlagsstationen
- derzeit 111 Stationen
niederschlagsdatenbank
niederschlagsstationen
- kartographische Darstellung
 
 
Mi. 7.30 Uhr - Do. 7.30 Uhr (MEZ)
1.Bad Waldsee-Haisterkirch
Zur Spitzenkapelle 1
0,0 l/m²
 
  treffpunkt & service
--- Anzeigen --------------------------------
zugriffe:
insgesamt: 44.983.501
aktueller monat: 162.994
heute: 5
momentan online: 4
 
 
monatshöchstwert: 653.625
vorheriger monat: 400.654
gestern: 13.337
tageshöchstwert: 51.297
 
wetterwarte süd
 
konradstraße 3
info@wetterwarte-sued.com
roland roth
 
88427 bad schussenried